Tracking 31023 objects as of 20-Jul-2025
HD Live streaming from Space Station
objects crossing your sky now

FENGYUN 1C DEB

Track FENGYUN 1C DEB now!
10-day predictions


NORAD ID: 30492
Int'l Code: 1999-025AHE
Perigee: 667.7 km
Apogee: 823.8 km
Inclination: 102.3 °
Period: 99.6 minutes
Semi major axis: 7116 km
RCS: 0.0164 m2 (small)
Launch date: May 10, 1999
Source: People's Republic of China (PRC)
Launch site: Taiyaun Space Center, China (TSC)

Note: This is SATELLITE DEBRIS
Your satellite tracking list
Your tracking list is empty




NASA's NSSDC Master Catalog

Two Line Element Set (TLE):
1 30492U 99025AHE 25200.81043279  .00012049  00000-0  31514-2 0  9998
2 30492 102.3255 151.6096 0109694  87.3468 274.0259 14.46049124947814
Source of the keplerian elements: AFSPC